Location: Unspecified
(0.0000°N, 0.0000°E)
Time: 01:49:17
(UTC+00:00)

Altair - Pass Details

Date: 27 November 2019
Orbit: 1502 x 1682 km, 47.2° (Epoch: 10 December)

Event Time Altitude Azimuth Distance (km) Brightness Sun altitude
Rises 19:52:32 0° 200° (SSW) 4,887 10.7 -28.9°
Reaches altitude 10° 19:56:19 10° 189° (S) 3,875 10.0 -29.8°
Maximum altitude 20:04:32 30° 132° (SE) 2,587 8.4 -31.6°
Enters shadow 20:04:39 30° 131° (SE) 2,587 8.4 -31.7°
Drops below altitude 10° 20:12:27 10° 75° (ENE) 3,748 - -33.4°
Sets 20:16:00 0° 65° (ENE) 4,704 - -34.2°
